{"data":{"norad_id":64298,"intl_designator":"2025-123H","name":"STARLINK-34391","alt_names":[],"object_type":"PAYLOAD","status":"ACTIVE","operator":null,"country":"US","launch_date":"2025-06-08","launch_site_code":"AFWTR","launch_vehicle":null,"mission":null,"orbit_class":"UNKNOWN","rcs_meters":null,"size_class":null,"mass_kg":null,"dimensions":null,"purposes":["comms"],"wikipedia_slug":null,"has_3d_model":false,"image_url":null,"decayed_at":null,"tle_current":{"epoch":"2026-05-24T23:57:56.543904Z","epoch_age_seconds":85885,"freshness":"FRESH","line1":"1 64298U 25123H   26144.99857111  .00003676  00000+0  31571-3 0  9991","line2":"2 64298  70.0025   1.8621 0002552 268.1836  91.9031 14.98335476 53057","mean_motion":14.98335476,"eccentricity":0.0002552,"inclination_deg":70.0025,"raan_deg":1.8621,"arg_perigee_deg":268.1836,"mean_anomaly_deg":91.9031,"bstar":0.00031571,"rev_number":5305,"period_min":96.106647881305,"perigee_km":570.2652720135,"apogee_km":573.81264182191,"semimajor_km":6950.1759569177,"source":"CELESTRAK","updated_at":"2026-05-25T13:38:20.366261Z"}}}